SCP
0 0 0 0 0 0 0 0 0 0 0 0 0 0 0 0 0 0 0 0 0 0 -0 -0 -0 -0 -0 -0 -0 0 0 0 0 0 0 0 0 0
0 0 0 0 0 0 0 0 0 0 0 0 0 0 0 0 0 0 0 0 0 0 -0 -0 -0 -0 -0 0 0 0 0 0 0 0 0 0 0 0
0 0 0 0 0 0 0 0 0 0 0 0 0 0 0 0 0 0 0 0 0 -0 -0 -0 -0 -0 -0 0 0 0 0 0 0 0 0 0 0 0
0 -0 0 0 0 0 0 0 0 0 0 0 0 0 0 0 0 0 0 0 -0 -0 -0 -0 -0 -0 0 0 0 0 0 0 0 0 0 0 0 0
0 0 0 0 0 0 0 0 0 0 0 0 0 0 0 0 0 0 0 0 0 0 0 0 -0 0 0 0 0 0 0 0 0 0 0 0 0 0
0 0 0 0 0 0 0 0 0 0 0 0 0 0 0 0 0 0 0 0 0 0 0 0 0 0 0 0 0 0 0 0 0 0 0 0 0 0
0 0 0 0 0 0 0 0 0 0 0 0 0 0 0 -0 -0 0 0 0 0 0 0 0 0 0 0 0 0 0 0 0 0 0 0 0 0 0
0 0 0 0 0 -0 0 0 0 0 0 0 0 -0 -0 -0 0 0 0 -0 0 0 0 0 0 0 0 0 0 0 0 0 0 0 0 0 0 0
0 0 0 0 0 0 0 0 -0 -0 -0 -0 -0 0 0 -0 -0 -0 -0 -0 0 0 0 0 0 0 0 0 0 0 0 0 0 0 0 0 0 0
0 0 0 0 0 0 -0 0 0 0 0 0 0 0 0 -0 -0 -0 -0 0 0 0 0 0 0 0 0 0 0 0 0 0 0 0 0 0 0 0
0 0 0 0 0 0 0 0 0 0 0 0 0 0 0 0 0 -0 0 0 0 0 0 0 0 0 0 0 0 0 0 0 0 0 0 0 0 0
0 0 0 0 -0 0 0 0 0 0 0 0 0 0 -0 -0 0 -0 0 0 0 0 0 0 0 0 0 0 0 0 0 0 0 0 0 0 0 0
0 0 0 -0 -0 0 0 0 0 -0 -0 0 0 -0 0 0 -0 -0 0 0 0 0 0 0 0 0 0 0 0 0 0 0 0 0 0 0 0 0
-0 -0 -0 -0 -0 0 0 0 0 0 0 0 0 0 0 0 0 0 0 0 0 0 0 0 0 0 0 0 0 0 0 0 0 0 0 0 0 0
-0 -0 -0 -0 -0 -0 -0 0 0 -0 -0 0 0 0 0 0 0 0 0 0 0 0 0 0 0 0 0 0 0 0 0 0 0 0 0 0 0 0
-0 -0 -0 0 0 0 0 0 -0 -0 0 0 0 0 0 0 0 0 0 0 0 0 0 0 0 0 0 0 0 0 0 0 0 0 0 0 0 0
0 -0 -0 -0 -0 -0 -0 -0 -0 -0 0 0 0 0 0 0 0 0 0 0 0 0 0 0 0 0 0 0 0 0 0 0 0 0 0 0 0 0
0 -0 -0 -0 -0 -0 -0 -0 0 0 0 0 0 0 0 0 0 0 0 0 0 0 0 0 0 0 0 0 0 0 0 0 0 0 0 0 0 0
-0 0 0 0 -0 -0 -0 0 0 0 0 0 0 0 0 0 0 0 0 0 0 0 0 0 0 0 0 0 0 0 0 0 0 0 0 0 0 0
0 0 0 0 0 0 0 0 0 0 0 0 0 0 0 0 0 0 0 0 0 0 0 0 0 0 0 0 0 0 0 0 0 0 0 0 0 0
0 0 0 0 0 0 0 0 0 0 0 0 0 0 0 0 0 0 0 0 0 0 0 0 0 0 0 0 0 0 0 0 0 0 0 0 0 0
0 0 0 0 0 0 0 0 0 0 0 0 0 0 0 0 0 0 0 0 0 0 0 0 0 0 0 0 0 0 0 0 0 0 0 0 0 0
0 0 0 0 0 0 0 0 0 0 0 0 0 0 0 0 0 0 0 0 0 0 0 0 0 0 0 0 0 0 0 0 0 0 0 0 0 0
Wind_Speed_500mb
15 22 24 24 31 24 27 39 58 41 37 42 51 61 82 80 66 58 52 43 35 26 21 18 19 20 17 16 6 2 5 6 10 14 17 21 25 29
14 14 16 24 33 25 32 31 49 53 29 51 61 51 76 53 55 45 40 35 28 19 18 18 17 18 15 11 7 7 7 8 11 15 19 23 26 30
13 14 15 21 33 36 26 34 46 39 44 45 52 50 65 59 57 46 32 28 24 22 23 20 16 16 12 10 6 5 6 9 13 19 23 25 28 32
12 18 16 17 29 35 26 45 39 33 42 50 52 54 58 63 53 43 28 28 25 23 21 15 14 13 9 7 2 5 11 16 20 22 26 31 37 41
19 21 21 24 33 30 31 32 34 33 35 50 52 59 68 57 47 35 25 26 23 23 19 15 14 12 6 2 8 13 17 21 27 32 37 40 42 47
22 24 27 20 19 25 28 30 34 41 52 53 51 71 59 47 40 35 26 22 21 19 20 15 12 5 2 3 7 13 17 21 26 31 32 37 42 47
24 31 30 20 22 27 41 40 38 38 51 47 51 51 49 49 37 28 27 26 22 21 19 13 8 4 3 5 8 11 18 25 30 34 36 38 41 47
26 33 31 34 34 28 28 28 31 52 50 47 43 40 40 38 31 26 31 29 24 30 20 13 8 11 11 10 13 18 22 25 27 30 36 42 47 51
34 40 44 34 39 38 39 48 46 34 41 42 28 26 27 28 28 30 31 32 30 22 15 17 12 7 8 11 13 17 22 29 35 40 43 46 49 54
37 45 42 47 40 42 46 41 38 38 32 19 22 24 28 31 31 33 33 30 23 17 16 18 12 5 3 4 11 22 27 33 37 42 46 49 56 59
40 35 38 39 39 40 31 27 28 29 31 30 30 30 33 37 32 28 24 20 19 21 16 15 13 10 9 5 16 21 27 34 41 45 50 56 57 58
42 45 47 41 41 33 30 30 29 27 27 31 33 28 27 28 25 22 18 16 15 15 15 15 7 4 4 7 12 20 32 37 40 45 50 51 55 58
46 44 41 44 40 47 27 30 29 26 27 31 31 25 22 22 23 23 20 14 8 7 9 5 6 7 3 4 20 25 34 37 37 47 48 50 54 61
38 37 42 37 33 32 32 26 21 15 11 14 16 17 17 18 17 15 13 10 9 9 7 9 7 3 3 13 18 25 30 32 44 48 51 53 55 56
28 31 32 31 32 35 34 27 18 14 12 13 14 14 15 16 17 17 15 14 12 9 7 7 4 2 9 13 18 26 34 31 45 48 55 57 60 60
26 31 32 34 34 34 34 31 26 23 19 20 20 19 22 24 23 20 19 16 12 9 8 5 5 5 10 14 16 24 31 30 42 49 55 58 57 56
30 32 38 39 40 38 37 35 33 31 29 28 25 23 22 25 30 29 24 16 10 10 13 11 4 6 9 13 16 27 32 37 43 51 57 58 55 57
36 39 39 42 44 43 42 41 40 37 36 31 28 27 29 30 34 32 25 19 16 25 19 11 4 5 8 14 17 28 33 39 45 50 54 59 57 55
41 41 42 44 47 48 48 49 47 44 40 36 34 33 32 37 38 35 32 28 30 24 9 16 7 2 7 16 19 31 35 41 46 48 53 55 58 47
55 48 46 46 47 52 54 54 53 51 48 44 42 41 40 44 43 42 41 38 35 24 21 16 7 6 10 15 18 27 36 40 47 51 54 54 53 41
60 58 54 51 49 49 53 55 57 57 54 52 50 49 48 50 51 48 44 43 36 24 17 20 15 9 10 16 20 23 30 41 48 50 55 56 62 52
58 61 61 59 56 54 54 56 58 60 60 59 56 53 55 59 57 53 55 50 39 33 28 25 17 9 9 12 17 23 28 33 37 38 44 51 51 47
55 55 57 61 64 65 62 62 62 63 63 61 57 55 60 62 58 57 48 43 29 26 23 25 16 12 9 10 16 22 29 35 37 37 42 43 30 37
Wind_Direction_500mb
197 198 207 199 191 201 203 180 164 157 139 161 138 147 155 158 156 155 154 149 159 149 162 152 165 162 137 157 161 71 19 357 347 355 344 343 337 332
189 189 199 193 190 172 147 169 174 157 138 150 157 147 159 142 143 149 143 151 147 142 144 132 138 144 140 113 83 56 30 9 355 340 331 328 325 319
153 150 143 170 187 180 164 171 179 177 156 164 151 156 162 149 147 138 142 139 131 131 126 117 135 131 111 95 89 58 346 336 329 326 324 319 308 303
146 159 160 165 181 175 175 172 171 170 165 156 160 161 165 148 140 130 122 133 128 122 119 121 131 128 128 118 64 343 334 330 325 317 307 309 311 310
103 118 130 151 171 188 179 175 171 174 164 152 153 151 159 152 152 149 137 131 126 130 126 140 143 134 125 56 308 312 317 314 316 313 312 308 305 301
102 112 115 134 143 163 165 155 161 156 150 134 131 145 155 150 154 155 152 139 137 130 125 126 116 129 192 273 312 317 316 328 325 325 323 318 318 318
110 118 117 124 122 142 158 148 148 152 152 145 144 149 152 166 166 161 159 149 144 137 129 125 130 111 49 20 23 354 334 329 329 326 325 326 326 325
131 134 135 130 127 126 143 159 148 150 155 156 155 157 161 166 163 159 159 156 138 130 131 134 106 96 68 37 356 343 342 337 341 342 339 334 327 324
141 139 139 137 136 135 127 129 138 142 138 133 142 158 169 168 160 157 156 142 142 137 137 126 122 83 50 15 351 346 351 354 347 338 335 333 337 337
141 145 142 142 144 139 129 130 132 144 156 162 126 134 150 158 145 138 144 150 147 146 159 152 141 107 66 29 352 359 354 342 340 340 344 348 347 343
147 145 155 158 153 150 140 136 142 147 143 135 128 131 136 144 150 157 166 165 164 166 165 176 155 163 188 357 358 346 338 349 351 352 354 352 348 345
139 139 140 143 147 151 134 136 142 142 147 150 146 138 150 160 161 171 180 178 177 165 175 190 151 129 217 311 327 343 351 355 358 358 357 352 346 348
143 146 144 145 143 147 137 133 134 126 127 145 148 142 144 151 157 160 158 166 200 204 182 222 287 281 180 347 339 349 351 357 2 360 359 356 354 352
158 153 150 154 158 160 151 144 143 147 145 148 158 156 152 157 162 168 180 201 225 261 257 281 259 183 326 339 347 351 356 1 2 358 356 360 356 352
165 166 173 177 177 178 176 179 185 189 204 197 188 186 190 210 222 227 210 209 243 269 264 249 216 261 330 347 351 357 1 6 359 356 359 359 354 351
170 177 177 180 181 186 194 201 205 210 221 212 205 211 222 221 213 213 221 229 258 244 216 225 221 307 345 351 3 7 7 5 357 357 357 357 353 351
188 192 197 199 201 201 202 207 211 216 219 217 225 236 230 219 212 219 226 233 242 204 190 205 252 346 358 355 4 8 6 0 359 356 356 353 356 355
208 211 210 212 213 212 213 216 219 220 221 228 239 245 242 228 223 218 218 223 225 191 199 223 240 351 338 354 2 4 360 358 360 358 352 353 360 359
229 229 227 225 223 222 223 225 225 225 230 239 248 249 241 229 225 219 210 211 195 191 221 232 212 310 343 4 355 358 356 359 359 354 355 357 357 358
232 232 230 228 229 228 227 226 226 229 235 243 248 248 243 232 222 216 212 205 198 196 228 217 245 303 351 3 359 352 355 357 357 354 356 359 360 359
231 233 232 233 234 234 232 232 233 237 242 246 249 246 238 228 218 216 204 196 195 203 224 247 246 285 331 348 355 358 359 358 355 358 358 359 359 2
233 236 237 238 238 238 238 241 243 243 245 247 248 244 233 225 221 216 202 200 202 211 219 238 244 275 318 325 352 2 3 2 3 7 2 3 6 356
239 239 238 238 240 243 243 242 244 249 252 252 249 243 228 220 219 209 200 190 197 224 237 233 247 261 289 335 359 5 2 2 6 8 10 11 10 5
Wind_Speed_850mb
15 22 24 24 31 24 27 39 58 41 37 42 51 61 82 80 66 58 52 43 35 26 21 18 19 20 17 16 6 2 5 6 10 14 17 21 25 29
14 14 16 24 33 25 32 31 49 53 29 51 61 51 76 53 55 45 40 35 28 19 18 18 17 18 15 11 7 7 7 8 11 15 19 23 26 30
13 14 15 21 33 36 26 34 46 39 44 45 52 50 65 59 57 46 32 28 24 22 23 20 16 16 12 10 6 5 6 9 13 19 23 25 28 32
12 18 16 17 29 35 26 45 39 33 42 50 52 54 58 63 53 43 28 28 25 23 21 15 14 13 9 7 2 5 11 16 20 22 26 31 37 41
19 21 21 24 33 30 31 32 34 33 35 50 52 59 68 57 47 35 25 26 23 23 19 15 14 12 6 2 8 13 17 21 27 32 37 40 42 47
22 24 27 20 19 25 28 30 34 41 52 53 51 71 59 47 40 35 26 22 21 19 20 15 12 5 2 3 7 13 17 21 26 31 32 37 42 47
24 31 30 20 22 27 41 40 38 38 51 47 51 51 49 49 37 28 27 26 22 21 19 13 8 4 3 5 8 11 18 25 30 34 36 38 41 47
26 33 31 34 34 28 28 28 31 52 50 47 43 40 40 38 31 26 31 29 24 30 20 13 8 11 11 10 13 18 22 25 27 30 36 42 47 51
34 40 44 34 39 38 39 48 46 34 41 42 28 26 27 28 28 30 31 32 30 22 15 17 12 7 8 11 13 17 22 29 35 40 43 46 49 54
37 45 42 47 40 42 46 41 38 38 32 19 22 24 28 31 31 33 33 30 23 17 16 18 12 5 3 4 11 22 27 33 37 42 46 49 56 59
40 35 38 39 39 40 31 27 28 29 31 30 30 30 33 37 32 28 24 20 19 21 16 15 13 10 9 5 16 21 27 34 41 45 50 56 57 58
42 45 47 41 41 33 30 30 29 27 27 31 33 28 27 28 25 22 18 16 15 15 15 15 7 4 4 7 12 20 32 37 40 45 50 51 55 58
46 44 41 44 40 47 27 30 29 26 27 31 31 25 22 22 23 23 20 14 8 7 9 5 6 7 3 4 20 25 34 37 37 47 48 50 54 61
38 37 42 37 33 32 32 26 21 15 11 14 16 17 17 18 17 15 13 10 9 9 7 9 7 3 3 13 18 25 30 32 44 48 51 53 55 56
28 31 32 31 32 35 34 27 18 14 12 13 14 14 15 16 17 17 15 14 12 9 7 7 4 2 9 13 18 26 34 31 45 48 55 57 60 60
26 31 32 34 34 34 34 31 26 23 19 20 20 19 22 24 23 20 19 16 12 9 8 5 5 5 10 14 16 24 31 30 42 49 55 58 57 56
30 32 38 39 40 38 37 35 33 31 29 28 25 23 22 25 30 29 24 16 10 10 13 11 4 6 9 13 16 27 32 37 43 51 57 58 55 57
36 39 39 42 44 43 42 41 40 37 36 31 28 27 29 30 34 32 25 19 16 25 19 11 4 5 8 14 17 28 33 39 45 50 54 59 57 55
41 41 42 44 47 48 48 49 47 44 40 36 34 33 32 37 38 35 32 28 30 24 9 16 7 2 7 16 19 31 35 41 46 48 53 55 58 47
55 48 46 46 47 52 54 54 53 51 48 44 42 41 40 44 43 42 41 38 35 24 21 16 7 6 10 15 18 27 36 40 47 51 54 54 53 41
60 58 54 51 49 49 53 55 57 57 54 52 50 49 48 50 51 48 44 43 36 24 17 20 15 9 10 16 20 23 30 41 48 50 55 56 62 52
58 61 61 59 56 54 54 56 58 60 60 59 56 53 55 59 57 53 55 50 39 33 28 25 17 9 9 12 17 23 28 33 37 38 44 51 51 47
55 55 57 61 64 65 62 62 62 63 63 61 57 55 60 62 58 57 48 43 29 26 23 25 16 12 9 10 16 22 29 35 37 37 42 43 30 37
Wind_Direction_850mb
197 198 207 199 191 201 203 180 164 157 139 161 138 147 155 158 156 155 154 149 159 149 162 152 165 162 137 157 161 71 19 357 347 355 344 343 337 332
189 189 199 193 190 172 147 169 174 157 138 150 157 147 159 142 143 149 143 151 147 142 144 132 138 144 140 113 83 56 30 9 355 340 331 328 325 319
153 150 143 170 187 180 164 171 179 177 156 164 151 156 162 149 147 138 142 139 131 131 126 117 135 131 111 95 89 58 346 336 329 326 324 319 308 303
146 159 160 165 181 175 175 172 171 170 165 156 160 161 165 148 140 130 122 133 128 122 119 121 131 128 128 118 64 343 334 330 325 317 307 309 311 310
103 118 130 151 171 188 179 175 171 174 164 152 153 151 159 152 152 149 137 131 126 130 126 140 143 134 125 56 308 312 317 314 316 313 312 308 305 301
102 112 115 134 143 163 165 155 161 156 150 134 131 145 155 150 154 155 152 139 137 130 125 126 116 129 192 273 312 317 316 328 325 325 323 318 318 318
110 118 117 124 122 142 158 148 148 152 152 145 144 149 152 166 166 161 159 149 144 137 129 125 130 111 49 20 23 354 334 329 329 326 325 326 326 325
131 134 135 130 127 126 143 159 148 150 155 156 155 157 161 166 163 159 159 156 138 130 131 134 106 96 68 37 356 343 342 337 341 342 339 334 327 324
141 139 139 137 136 135 127 129 138 142 138 133 142 158 169 168 160 157 156 142 142 137 137 126 122 83 50 15 351 346 351 354 347 338 335 333 337 337
141 145 142 142 144 139 129 130 132 144 156 162 126 134 150 158 145 138 144 150 147 146 159 152 141 107 66 29 352 359 354 342 340 340 344 348 347 343
147 145 155 158 153 150 140 136 142 147 143 135 128 131 136 144 150 157 166 165 164 166 165 176 155 163 188 357 358 346 338 349 351 352 354 352 348 345
139 139 140 143 147 151 134 136 142 142 147 150 146 138 150 160 161 171 180 178 177 165 175 190 151 129 217 311 327 343 351 355 358 358 357 352 346 348
143 146 144 145 143 147 137 133 134 126 127 145 148 142 144 151 157 160 158 166 200 204 182 222 287 281 180 347 339 349 351 357 2 360 359 356 354 352
158 153 150 154 158 160 151 144 143 147 145 148 158 156 152 157 162 168 180 201 225 261 257 281 259 183 326 339 347 351 356 1 2 358 356 360 356 352
165 166 173 177 177 178 176 179 185 189 204 197 188 186 190 210 222 227 210 209 243 269 264 249 216 261 330 347 351 357 1 6 359 356 359 359 354 351
170 177 177 180 181 186 194 201 205 210 221 212 205 211 222 221 213 213 221 229 258 244 216 225 221 307 345 351 3 7 7 5 357 357 357 357 353 351
188 192 197 199 201 201 202 207 211 216 219 217 225 236 230 219 212 219 226 233 242 204 190 205 252 346 358 355 4 8 6 0 359 356 356 353 356 355
208 211 210 212 213 212 213 216 219 220 221 228 239 245 242 228 223 218 218 223 225 191 199 223 240 351 338 354 2 4 360 358 360 358 352 353 360 359
229 229 227 225 223 222 223 225 225 225 230 239 248 249 241 229 225 219 210 211 195 191 221 232 212 310 343 4 355 358 356 359 359 354 355 357 357 358
232 232 230 228 229 228 227 226 226 229 235 243 248 248 243 232 222 216 212 205 198 196 228 217 245 303 351 3 359 352 355 357 357 354 356 359 360 359
231 233 232 233 234 234 232 232 233 237 242 246 249 246 238 228 218 216 204 196 195 203 224 247 246 285 331 348 355 358 359 358 355 358 358 359 359 2
233 236 237 238 238 238 238 241 243 243 245 247 248 244 233 225 221 216 202 200 202 211 219 238 244 275 318 325 352 2 3 2 3 7 2 3 6 356
239 239 238 238 240 243 243 242 244 249 252 252 249 243 228 220 219 209 200 190 197 224 237 233 247 261 289 335 359 5 2 2 6 8 10 11 10 5